Year,Month,Day,Hour,Minute,Value (Times are PST for temperature in C)
2019,05,23,00,00,14.20
2019,05,23,00,01,14.30
2019,05,23,00,02,14.30
2019,05,23,00,03,14.30
2019,05,23,00,04,14.30
2019,05,23,00,05,14.30
2019,05,23,00,06,14.30
2019,05,23,00,07,14.30
2019,05,23,00,08,14.30
2019,05,23,00,09,14.30
2019,05,23,00,10,14.30
2019,05,23,00,11,14.30
2019,05,23,00,12,14.30
2019,05,23,00,13,14.30
2019,05,23,00,14,14.30
2019,05,23,00,15,14.30
2019,05,23,00,16,14.30
2019,05,23,00,17,14.30
2019,05,23,00,18,14.30
2019,05,23,00,19,14.30
2019,05,23,00,20,14.30
2019,05,23,00,21,14.30
2019,05,23,00,22,14.30
2019,05,23,00,23,14.30
2019,05,23,00,24,14.30
2019,05,23,00,25,14.30
2019,05,23,00,26,14.30
2019,05,23,00,27,14.30
2019,05,23,00,28,14.30
2019,05,23,00,29,14.30
2019,05,23,00,30,14.30
2019,05,23,00,31,14.30
2019,05,23,00,32,14.30
2019,05,23,00,33,14.30
2019,05,23,00,34,14.30
2019,05,23,00,35,14.30
2019,05,23,00,36,14.20
2019,05,23,00,37,14.20
2019,05,23,00,38,14.20
2019,05,23,00,39,14.10
2019,05,23,00,40,14.10
2019,05,23,00,41,14.10
2019,05,23,00,42,14.00
2019,05,23,00,43,14.00
2019,05,23,00,44,14.00
2019,05,23,00,45,14.00
2019,05,23,00,46,13.90
2019,05,23,00,47,13.90
2019,05,23,00,48,13.90
2019,05,23,00,49,13.90
2019,05,23,00,50,13.80
2019,05,23,00,51,13.80
2019,05,23,00,52,13.80
2019,05,23,00,53,13.80
2019,05,23,00,54,13.70
2019,05,23,00,55,13.70
2019,05,23,00,56,13.70
2019,05,23,00,57,13.70
2019,05,23,00,58,13.60
2019,05,23,00,59,13.60
2019,05,23,01,00,13.60
2019,05,23,01,01,13.60
2019,05,23,01,02,13.50
2019,05,23,01,03,13.50
2019,05,23,01,04,13.50
2019,05,23,01,05,13.40
2019,05,23,01,06,13.40
2019,05,23,01,07,13.40
2019,05,23,01,08,13.30
2019,05,23,01,09,13.30
2019,05,23,01,10,13.30
2019,05,23,01,11,13.30
2019,05,23,01,12,13.30
2019,05,23,01,13,13.30
2019,05,23,01,14,13.30
2019,05,23,01,15,13.20
2019,05,23,01,16,13.20
2019,05,23,01,17,13.20
2019,05,23,01,18,13.20
2019,05,23,01,19,13.20
2019,05,23,01,20,13.20
2019,05,23,01,21,13.10
2019,05,23,01,22,13.10
2019,05,23,01,23,13.10
2019,05,23,01,24,13.10
2019,05,23,01,25,13.10
2019,05,23,01,26,13.00
2019,05,23,01,27,13.00
2019,05,23,01,28,13.00
2019,05,23,01,29,13.00
2019,05,23,01,30,12.90
2019,05,23,01,31,12.90
2019,05,23,01,32,12.90
2019,05,23,01,33,12.90
2019,05,23,01,34,12.90
2019,05,23,01,35,12.90
2019,05,23,01,36,12.90
2019,05,23,01,37,12.90
2019,05,23,01,38,12.90
2019,05,23,01,39,12.90
2019,05,23,01,40,12.90
2019,05,23,01,41,12.90
2019,05,23,01,42,12.90
2019,05,23,01,43,12.80
2019,05,23,01,44,12.80
2019,05,23,01,45,12.80
2019,05,23,01,46,12.80
2019,05,23,01,47,12.80
2019,05,23,01,48,12.80
2019,05,23,01,49,12.80
2019,05,23,01,50,12.80
2019,05,23,01,51,12.80
2019,05,23,01,52,12.80
2019,05,23,01,53,12.80
2019,05,23,01,54,12.80
2019,05,23,01,55,12.80
2019,05,23,01,56,12.80
2019,05,23,01,57,12.80
2019,05,23,01,58,12.80
2019,05,23,01,59,12.80
2019,05,23,02,00,12.80
2019,05,23,02,01,12.80
2019,05,23,02,02,12.70
2019,05,23,02,03,12.70
2019,05,23,02,04,12.70
2019,05,23,02,05,12.70
2019,05,23,02,06,12.70
2019,05,23,02,07,12.70
2019,05,23,02,08,12.70
2019,05,23,02,09,12.70
2019,05,23,02,10,12.70
2019,05,23,02,11,12.70
2019,05,23,02,12,12.70
2019,05,23,02,13,12.70
2019,05,23,02,14,12.70
2019,05,23,02,15,12.70
2019,05,23,02,16,12.60
2019,05,23,02,17,12.60
2019,05,23,02,18,12.60
2019,05,23,02,19,12.60
2019,05,23,02,20,12.60
2019,05,23,02,21,12.60
2019,05,23,02,22,12.60
2019,05,23,02,23,12.60
2019,05,23,02,24,12.50
2019,05,23,02,25,12.50
2019,05,23,02,26,12.50
2019,05,23,02,27,12.50
2019,05,23,02,28,12.50
2019,05,23,02,29,12.50
2019,05,23,02,30,12.40
2019,05,23,02,31,12.40
2019,05,23,02,32,12.40
2019,05,23,02,33,12.40
2019,05,23,02,34,12.40
2019,05,23,02,35,12.40
2019,05,23,02,36,12.40
2019,05,23,02,37,12.40
2019,05,23,02,38,12.40
2019,05,23,02,39,12.40
2019,05,23,02,40,12.40
2019,05,23,02,41,12.40
2019,05,23,02,42,12.40
2019,05,23,02,43,12.40
2019,05,23,02,44,12.40
2019,05,23,02,45,12.40
2019,05,23,02,46,12.30
2019,05,23,02,47,12.30
2019,05,23,02,48,12.30
2019,05,23,02,49,12.30
2019,05,23,02,50,12.30
2019,05,23,02,51,12.30
2019,05,23,02,52,12.30
2019,05,23,02,53,12.30
2019,05,23,02,54,12.30
2019,05,23,02,55,12.20
2019,05,23,02,56,12.20
2019,05,23,02,57,12.20
2019,05,23,02,58,12.20
2019,05,23,02,59,12.20
2019,05,23,03,00,12.20
2019,05,23,03,01,12.10
2019,05,23,03,02,12.10
2019,05,23,03,03,12.10
2019,05,23,03,04,12.10
2019,05,23,03,05,12.00
2019,05,23,03,06,12.00
2019,05,23,03,07,12.00
2019,05,23,03,08,11.90
2019,05,23,03,09,11.90
2019,05,23,03,10,11.90
2019,05,23,03,11,11.90
2019,05,23,03,12,11.90
2019,05,23,03,13,11.80
2019,05,23,03,14,11.80
2019,05,23,03,15,11.80
2019,05,23,03,16,11.80
2019,05,23,03,17,11.80
2019,05,23,03,18,11.80
2019,05,23,03,19,11.80
2019,05,23,03,20,11.80
2019,05,23,03,21,11.80
2019,05,23,03,22,11.70
2019,05,23,03,23,11.70
2019,05,23,03,24,11.70
2019,05,23,03,25,11.70
2019,05,23,03,26,11.70
2019,05,23,03,27,11.70
2019,05,23,03,28,11.70
2019,05,23,03,29,11.70
2019,05,23,03,30,11.70
2019,05,23,03,31,11.70
2019,05,23,03,32,11.70
2019,05,23,03,33,11.70
2019,05,23,03,34,11.70
2019,05,23,03,35,11.70
2019,05,23,03,36,11.70
2019,05,23,03,37,11.70
2019,05,23,03,38,11.70
2019,05,23,03,39,11.70
2019,05,23,03,40,11.70
2019,05,23,03,41,11.70
2019,05,23,03,42,11.70
2019,05,23,03,43,11.60
2019,05,23,03,44,11.60
2019,05,23,03,45,11.60
2019,05,23,03,46,11.60
2019,05,23,03,47,11.60
2019,05,23,03,48,11.60
2019,05,23,03,49,11.60
2019,05,23,03,50,11.60
2019,05,23,03,51,11.60
2019,05,23,03,52,11.70
2019,05,23,03,53,11.70
2019,05,23,03,54,11.70
2019,05,23,03,55,11.70
2019,05,23,03,56,11.70
2019,05,23,03,57,11.70
2019,05,23,03,58,11.70
2019,05,23,03,59,11.70
2019,05,23,04,00,11.70
2019,05,23,04,01,11.80
2019,05,23,04,02,11.80
2019,05,23,04,03,11.80
2019,05,23,04,04,11.80
2019,05,23,04,05,11.80
2019,05,23,04,06,11.80
2019,05,23,04,07,11.80
2019,05,23,04,08,11.90
2019,05,23,04,09,11.90
2019,05,23,04,10,11.90
2019,05,23,04,11,11.90
2019,05,23,04,12,11.90
2019,05,23,04,13,12.00
2019,05,23,04,14,12.00
2019,05,23,04,15,12.00
2019,05,23,04,16,12.10
2019,05,23,04,17,12.10
2019,05,23,04,18,12.10
2019,05,23,04,19,12.10
2019,05,23,04,20,12.20
2019,05,23,04,21,12.20
2019,05,23,04,22,12.20
2019,05,23,04,23,12.20
2019,05,23,04,24,12.20
2019,05,23,04,25,12.20
2019,05,23,04,26,12.20
2019,05,23,04,27,12.30
2019,05,23,04,28,12.30
2019,05,23,04,29,12.30
2019,05,23,04,30,12.30
2019,05,23,04,31,12.40
2019,05,23,04,32,12.40
2019,05,23,04,33,12.40
2019,05,23,04,34,12.40
2019,05,23,04,35,12.50
2019,05,23,04,36,12.50
2019,05,23,04,37,12.50
2019,05,23,04,38,12.60
2019,05,23,04,39,12.60
2019,05,23,04,40,12.60
2019,05,23,04,41,12.60
2019,05,23,04,42,12.70
2019,05,23,04,43,12.70
2019,05,23,04,44,12.70
2019,05,23,04,45,12.80
2019,05,23,04,46,12.80
2019,05,23,04,47,12.90
2019,05,23,04,48,12.90
2019,05,23,04,49,12.90
2019,05,23,04,50,13.00
2019,05,23,04,51,13.00
2019,05,23,04,52,13.00
2019,05,23,04,53,13.10
2019,05,23,04,54,13.10
2019,05,23,04,55,13.20
2019,05,23,04,56,13.20
2019,05,23,04,57,13.20
2019,05,23,04,58,13.20
2019,05,23,04,59,13.30
2019,05,23,05,00,13.30
2019,05,23,05,01,13.30
2019,05,23,05,02,13.30
2019,05,23,05,03,13.30
2019,05,23,05,04,13.30
2019,05,23,05,05,13.40
2019,05,23,05,06,13.40
2019,05,23,05,07,13.40
2019,05,23,05,08,13.40
2019,05,23,05,09,13.40
2019,05,23,05,10,13.40
2019,05,23,05,11,13.40
2019,05,23,05,12,13.40
2019,05,23,05,13,13.40
2019,05,23,05,14,13.40
2019,05,23,05,15,13.40
2019,05,23,05,16,13.40
2019,05,23,05,17,13.40
2019,05,23,05,18,13.40
2019,05,23,05,19,13.40
2019,05,23,05,20,13.40
2019,05,23,05,21,13.40
2019,05,23,05,22,13.40
2019,05,23,05,23,13.40
2019,05,23,05,24,13.40
2019,05,23,05,25,13.40
2019,05,23,05,26,13.40
2019,05,23,05,27,13.30
2019,05,23,05,28,13.30
2019,05,23,05,29,13.30
2019,05,23,05,30,13.30
2019,05,23,05,31,13.20
2019,05,23,05,32,13.20
2019,05,23,05,33,13.20
2019,05,23,05,34,13.20
2019,05,23,05,35,13.20
2019,05,23,05,36,13.10
2019,05,23,05,37,13.10
2019,05,23,05,38,13.10
2019,05,23,05,39,13.10
2019,05,23,05,40,13.00
2019,05,23,05,41,13.00
2019,05,23,05,42,13.00
2019,05,23,05,43,13.00
2019,05,23,05,44,12.90
2019,05,23,05,45,12.90
2019,05,23,05,46,12.90
2019,05,23,05,47,12.90
2019,05,23,05,48,12.80
2019,05,23,05,49,12.80
2019,05,23,05,50,12.80
2019,05,23,05,51,12.80
2019,05,23,05,52,12.80
2019,05,23,05,53,12.80
2019,05,23,05,54,12.70
2019,05,23,05,55,12.70
2019,05,23,05,56,12.70
2019,05,23,05,57,12.70
2019,05,23,05,58,12.70
2019,05,23,05,59,12.70
2019,05,23,06,00,12.60
2019,05,23,06,01,12.60
2019,05,23,06,02,12.60
2019,05,23,06,03,12.60
2019,05,23,06,04,12.60
2019,05,23,06,05,12.60
2019,05,23,06,06,12.60
2019,05,23,06,07,12.50
2019,05,23,06,08,12.50
2019,05,23,06,09,12.50
2019,05,23,06,10,12.50
2019,05,23,06,11,12.40
2019,05,23,06,12,12.40
2019,05,23,06,13,12.40
2019,05,23,06,14,12.40
2019,05,23,06,15,12.40
2019,05,23,06,16,12.40
2019,05,23,06,17,12.40
2019,05,23,06,18,12.40
2019,05,23,06,19,12.40
2019,05,23,06,20,12.40
2019,05,23,06,21,12.40
2019,05,23,06,22,12.40
2019,05,23,06,23,12.40
2019,05,23,06,24,12.40
2019,05,23,06,25,12.40
2019,05,23,06,26,12.40
2019,05,23,06,27,12.50
2019,05,23,06,28,12.50
2019,05,23,06,29,12.50
2019,05,23,06,30,12.60
2019,05,23,06,31,12.60
2019,05,23,06,32,12.70
2019,05,23,06,33,12.70
2019,05,23,06,34,12.70
2019,05,23,06,35,12.80
2019,05,23,06,36,12.80
2019,05,23,06,37,12.80
2019,05,23,06,38,12.90
2019,05,23,06,39,12.90
2019,05,23,06,40,13.00
2019,05,23,06,41,13.00
2019,05,23,06,42,13.10
2019,05,23,06,43,13.10
2019,05,23,06,44,13.20
2019,05,23,06,45,13.20
2019,05,23,06,46,13.30
2019,05,23,06,47,13.30
2019,05,23,06,48,13.40
2019,05,23,06,49,13.50
2019,05,23,06,50,13.50
2019,05,23,06,51,13.60
2019,05,23,06,52,13.60
2019,05,23,06,53,13.70
2019,05,23,06,54,13.70
2019,05,23,06,55,13.80
2019,05,23,06,56,13.80
2019,05,23,06,57,13.80
2019,05,23,06,58,13.90
2019,05,23,06,59,13.90
2019,05,23,07,00,13.90
2019,05,23,07,01,14.00
2019,05,23,07,02,14.00
2019,05,23,07,03,14.00
2019,05,23,07,04,14.10
2019,05,23,07,05,14.10
2019,05,23,07,06,14.10
2019,05,23,07,07,14.10
2019,05,23,07,08,14.20
2019,05,23,07,09,14.20
2019,05,23,07,10,14.20
2019,05,23,07,11,14.20
2019,05,23,07,12,14.20
2019,05,23,07,13,14.20
2019,05,23,07,14,14.30
2019,05,23,07,15,14.30
2019,05,23,07,16,14.30
2019,05,23,07,17,14.30
2019,05,23,07,18,14.30
2019,05,23,07,19,14.30
2019,05,23,07,20,14.30
2019,05,23,07,21,14.30
2019,05,23,07,22,14.30
2019,05,23,07,23,14.30
2019,05,23,07,24,14.30
2019,05,23,07,25,14.40
2019,05,23,07,26,14.40
2019,05,23,07,27,14.40
2019,05,23,07,28,14.40
2019,05,23,07,29,14.50
2019,05,23,07,30,14.50
2019,05,23,07,31,14.50
2019,05,23,07,32,14.60
2019,05,23,07,33,14.60
2019,05,23,07,34,14.60
2019,05,23,07,35,14.60
2019,05,23,07,36,14.60
2019,05,23,07,37,14.60
2019,05,23,07,38,14.70
2019,05,23,07,39,14.70
2019,05,23,07,40,14.70
2019,05,23,07,41,14.70
2019,05,23,07,42,14.70
2019,05,23,07,43,14.70
2019,05,23,07,44,14.70
2019,05,23,07,45,14.80
2019,05,23,07,46,14.80
2019,05,23,07,47,14.80
2019,05,23,07,48,14.80
2019,05,23,07,49,14.80
2019,05,23,07,50,14.80
2019,05,23,07,51,14.80
2019,05,23,07,52,14.80
2019,05,23,07,53,14.80
2019,05,23,07,54,14.80
2019,05,23,07,55,14.80
2019,05,23,07,56,14.80
2019,05,23,07,57,14.90
2019,05,23,07,58,14.90
2019,05,23,07,59,14.90
2019,05,23,08,00,14.90
2019,05,23,08,01,14.90
2019,05,23,08,02,15.00
2019,05,23,08,03,15.00
2019,05,23,08,04,15.00
2019,05,23,08,05,15.00
2019,05,23,08,06,15.00
2019,05,23,08,07,15.10
2019,05,23,08,08,15.10
2019,05,23,08,09,15.10
2019,05,23,08,10,15.10
2019,05,23,08,11,15.10
2019,05,23,08,12,15.10
2019,05,23,08,13,15.10
2019,05,23,08,14,15.10
2019,05,23,08,15,15.10
2019,05,23,08,16,15.10
2019,05,23,08,17,15.10
2019,05,23,08,18,15.10
2019,05,23,08,19,15.10
2019,05,23,08,20,15.10
2019,05,23,08,21,15.10
2019,05,23,08,22,15.10
2019,05,23,08,23,15.10
2019,05,23,08,24,15.10
2019,05,23,08,25,15.10
2019,05,23,08,26,15.10
2019,05,23,08,27,15.10
2019,05,23,08,28,15.10
2019,05,23,08,29,15.10
2019,05,23,08,30,15.10
2019,05,23,08,31,15.10
2019,05,23,08,32,15.10
2019,05,23,08,33,15.10
2019,05,23,08,34,15.10
2019,05,23,08,35,15.00
2019,05,23,08,36,15.00
2019,05,23,08,37,15.00
2019,05,23,08,38,15.00
2019,05,23,08,39,15.00
2019,05,23,08,40,15.00
2019,05,23,08,41,15.00
2019,05,23,08,42,15.00
2019,05,23,08,43,15.00
2019,05,23,08,44,15.00
2019,05,23,08,45,15.00
2019,05,23,08,46,15.00
2019,05,23,08,47,15.00
2019,05,23,08,48,15.00
2019,05,23,08,49,15.00
2019,05,23,08,50,15.00
2019,05,23,08,51,15.00
2019,05,23,08,52,15.00
2019,05,23,08,53,15.00
2019,05,23,08,54,15.10
2019,05,23,08,55,15.10
2019,05,23,08,56,15.10
2019,05,23,08,57,15.10
2019,05,23,08,58,15.10
2019,05,23,08,59,15.20
2019,05,23,09,00,15.20
2019,05,23,09,01,15.20
2019,05,23,09,02,15.30
2019,05,23,09,03,15.30
2019,05,23,09,04,15.30
2019,05,23,09,05,15.40
2019,05,23,09,06,15.40
2019,05,23,09,07,15.40
2019,05,23,09,08,15.40
2019,05,23,09,09,15.40
2019,05,23,09,10,15.50
2019,05,23,09,11,15.50
2019,05,23,09,12,15.50
2019,05,23,09,13,15.50
2019,05,23,09,14,15.50
2019,05,23,09,15,15.50
2019,05,23,09,16,15.50
2019,05,23,09,17,15.50
2019,05,23,09,18,15.50
2019,05,23,09,19,15.50
2019,05,23,09,20,15.50
2019,05,23,09,21,15.50
2019,05,23,09,22,15.60
2019,05,23,09,23,15.60
2019,05,23,09,24,15.60
2019,05,23,09,25,15.60
2019,05,23,09,26,15.60
2019,05,23,09,27,15.60
2019,05,23,09,28,15.70
2019,05,23,09,29,15.70
2019,05,23,09,30,15.70
2019,05,23,09,31,15.70
2019,05,23,09,32,15.70
2019,05,23,09,33,15.80
2019,05,23,09,34,15.80
2019,05,23,09,35,15.90
2019,05,23,09,36,15.90
2019,05,23,09,37,16.00
2019,05,23,09,38,16.10
2019,05,23,09,39,16.10
2019,05,23,09,40,16.20
2019,05,23,09,41,16.20
2019,05,23,09,42,16.20
2019,05,23,09,43,16.30
2019,05,23,09,44,16.30
2019,05,23,09,45,16.40
2019,05,23,09,46,16.40
2019,05,23,09,47,16.50
2019,05,23,09,48,16.60
2019,05,23,09,49,16.60
2019,05,23,09,50,16.70
2019,05,23,09,51,16.80
2019,05,23,09,52,16.80
2019,05,23,09,53,16.90
2019,05,23,09,54,16.90
2019,05,23,09,55,17.00
2019,05,23,09,56,17.10
2019,05,23,09,57,17.10
2019,05,23,09,58,17.10
2019,05,23,09,59,17.20
2019,05,23,10,00,17.20
2019,05,23,10,01,17.20
2019,05,23,10,02,17.20
2019,05,23,10,03,17.30
2019,05,23,10,04,17.30
2019,05,23,10,05,17.40
2019,05,23,10,06,17.40
2019,05,23,10,07,17.50
2019,05,23,10,08,17.50
2019,05,23,10,09,17.50
2019,05,23,10,10,17.60
2019,05,23,10,11,17.60
2019,05,23,10,12,17.70
2019,05,23,10,13,17.70
2019,05,23,10,14,17.80
2019,05,23,10,15,17.80
2019,05,23,10,16,17.80
2019,05,23,10,17,17.80
2019,05,23,10,18,17.90
2019,05,23,10,19,17.90
2019,05,23,10,20,17.90
2019,05,23,10,21,17.90
2019,05,23,10,22,17.90
2019,05,23,10,23,17.90
2019,05,23,10,24,17.90
2019,05,23,10,25,17.80
2019,05,23,10,26,17.80
2019,05,23,10,27,17.80
2019,05,23,10,28,17.80
2019,05,23,10,29,17.80
2019,05,23,10,30,17.70
2019,05,23,10,31,17.60
2019,05,23,10,32,17.60
2019,05,23,10,33,17.60
2019,05,23,10,34,17.60
2019,05,23,10,35,17.60
2019,05,23,10,36,17.60
2019,05,23,10,37,17.60
2019,05,23,10,38,17.50
2019,05,23,10,39,17.50
2019,05,23,10,40,17.50
2019,05,23,10,41,17.50
2019,05,23,10,42,17.40
2019,05,23,10,43,17.40
2019,05,23,10,44,17.40
2019,05,23,10,45,17.50
2019,05,23,10,46,17.50
2019,05,23,10,47,17.50
2019,05,23,10,48,17.60
2019,05,23,10,49,17.60
2019,05,23,10,50,17.60
2019,05,23,10,51,17.50
2019,05,23,10,52,17.40
2019,05,23,10,53,17.40
2019,05,23,10,54,17.60
2019,05,23,10,55,17.70
2019,05,23,10,56,17.80
2019,05,23,10,57,17.90
2019,05,23,10,58,17.90
2019,05,23,10,59,18.00
2019,05,23,11,00,18.10
2019,05,23,11,01,18.20
2019,05,23,11,02,18.30
2019,05,23,11,03,18.40
2019,05,23,11,04,18.50
2019,05,23,11,05,18.50
2019,05,23,11,06,18.60
2019,05,23,11,07,18.70
2019,05,23,11,08,18.80
2019,05,23,11,09,18.80
2019,05,23,11,10,18.90
2019,05,23,11,11,19.00
2019,05,23,11,12,19.00
2019,05,23,11,13,19.10
2019,05,23,11,14,19.20
2019,05,23,11,15,19.20
2019,05,23,11,16,19.30
2019,05,23,11,17,19.30
2019,05,23,11,18,19.40
2019,05,23,11,19,19.40
2019,05,23,11,20,19.40
2019,05,23,11,21,19.50
2019,05,23,11,22,19.60
2019,05,23,11,23,19.60
2019,05,23,11,24,19.60
2019,05,23,11,25,19.60
2019,05,23,11,26,19.60
2019,05,23,11,27,19.50
2019,05,23,11,28,19.50
2019,05,23,11,29,19.40
2019,05,23,11,30,19.30
2019,05,23,11,31,19.20
2019,05,23,11,32,19.10
2019,05,23,11,33,19.10
2019,05,23,11,34,19.00
2019,05,23,11,35,19.00
2019,05,23,11,36,19.10
2019,05,23,11,37,19.00
2019,05,23,11,38,18.90
2019,05,23,11,39,18.90
2019,05,23,11,40,18.90
2019,05,23,11,41,18.90
2019,05,23,11,42,19.00
2019,05,23,11,43,19.00
2019,05,23,11,44,19.00
2019,05,23,11,45,18.90
2019,05,23,11,46,18.90
2019,05,23,11,47,19.00
2019,05,23,11,48,19.00
2019,05,23,11,49,19.00
2019,05,23,11,50,19.00
2019,05,23,11,51,19.00
2019,05,23,11,52,19.00
2019,05,23,11,53,19.00
2019,05,23,11,54,19.00
2019,05,23,11,55,19.00
2019,05,23,11,56,19.00
2019,05,23,11,57,19.10
2019,05,23,11,58,19.10
2019,05,23,11,59,19.10
2019,05,23,12,00,19.20
2019,05,23,12,01,19.20
2019,05,23,12,02,19.20
2019,05,23,12,03,19.20
2019,05,23,12,04,19.30
2019,05,23,12,05,19.30
2019,05,23,12,06,19.40
2019,05,23,12,07,19.50
2019,05,23,12,08,19.50
2019,05,23,12,09,19.60
2019,05,23,12,10,19.70
2019,05,23,12,11,19.80
2019,05,23,12,12,19.90
2019,05,23,12,13,19.90
2019,05,23,12,14,19.90
2019,05,23,12,15,20.00
2019,05,23,12,16,19.90
2019,05,23,12,17,19.90
2019,05,23,12,18,19.90
2019,05,23,12,19,19.90
2019,05,23,12,20,20.00
2019,05,23,12,21,20.00
2019,05,23,12,22,20.10
2019,05,23,12,23,20.20
2019,05,23,12,24,20.20
2019,05,23,12,25,20.10
2019,05,23,12,26,20.00
2019,05,23,12,27,20.00
2019,05,23,12,28,19.90
2019,05,23,12,29,19.90
2019,05,23,12,30,19.90
2019,05,23,12,31,19.90
2019,05,23,12,32,19.80
2019,05,23,12,33,19.80
2019,05,23,12,34,19.80
2019,05,23,12,35,19.80
2019,05,23,12,36,19.80
2019,05,23,12,37,19.70
2019,05,23,12,38,19.70
2019,05,23,12,39,19.60
2019,05,23,12,40,19.50
2019,05,23,12,41,19.50
2019,05,23,12,42,19.40
2019,05,23,12,43,19.50
2019,05,23,12,44,19.60
2019,05,23,12,45,19.60
2019,05,23,12,46,19.70
2019,05,23,12,47,19.80
2019,05,23,12,48,19.90
2019,05,23,12,49,20.00
2019,05,23,12,50,20.10
2019,05,23,12,51,20.10
2019,05,23,12,52,20.10
2019,05,23,12,53,20.10
2019,05,23,12,54,20.10
2019,05,23,12,55,20.10
2019,05,23,12,56,20.00
2019,05,23,12,57,20.00
2019,05,23,12,58,19.90
2019,05,23,12,59,19.80
2019,05,23,13,00,19.80
2019,05,23,13,01,19.80
2019,05,23,13,02,19.90
2019,05,23,13,03,20.00
2019,05,23,13,04,20.10
2019,05,23,13,05,20.20
2019,05,23,13,06,20.30
2019,05,23,13,07,20.40
2019,05,23,13,08,20.50
2019,05,23,13,09,20.60
2019,05,23,13,10,20.70
2019,05,23,13,11,20.90
2019,05,23,13,12,21.00
2019,05,23,13,13,21.00
2019,05,23,13,14,21.10
2019,05,23,13,15,21.10
2019,05,23,13,16,21.10
2019,05,23,13,17,21.20
2019,05,23,13,18,21.20
2019,05,23,13,19,21.20
2019,05,23,13,20,21.10
2019,05,23,13,21,21.00
2019,05,23,13,22,21.00
2019,05,23,13,23,21.00
2019,05,23,13,24,21.10
2019,05,23,13,25,21.10
2019,05,23,13,26,21.20
2019,05,23,13,27,21.30
2019,05,23,13,28,21.30
2019,05,23,13,29,21.40
2019,05,23,13,30,21.40
2019,05,23,13,31,21.40
2019,05,23,13,32,21.40
2019,05,23,13,33,21.40
2019,05,23,13,34,21.40
2019,05,23,13,35,21.40
2019,05,23,13,36,21.50
2019,05,23,13,37,21.50
2019,05,23,13,38,21.60
2019,05,23,13,39,21.60
2019,05,23,13,40,21.60
2019,05,23,13,41,21.50
2019,05,23,13,42,21.40
2019,05,23,13,43,21.30
2019,05,23,13,44,21.20
2019,05,23,13,45,21.30
2019,05,23,13,46,21.30
2019,05,23,13,47,21.30
2019,05,23,13,48,21.40
2019,05,23,13,49,21.50
2019,05,23,13,50,21.50
2019,05,23,13,51,21.60
2019,05,23,13,52,21.70
2019,05,23,13,53,21.80
2019,05,23,13,54,21.90
2019,05,23,13,55,22.00
2019,05,23,13,56,22.10
2019,05,23,13,57,22.10
2019,05,23,13,58,22.00
2019,05,23,13,59,22.00
2019,05,23,14,00,22.00
2019,05,23,14,01,22.00
2019,05,23,14,02,22.00
2019,05,23,14,03,22.10
2019,05,23,14,04,22.00
2019,05,23,14,05,22.00
2019,05,23,14,06,22.00
2019,05,23,14,07,22.00
2019,05,23,14,08,22.00
2019,05,23,14,09,22.10
2019,05,23,14,10,22.20
2019,05,23,14,11,22.30
2019,05,23,14,12,22.40
2019,05,23,14,13,22.50
2019,05,23,14,14,22.60
2019,05,23,14,15,22.70
2019,05,23,14,16,22.70
2019,05,23,14,17,22.80
2019,05,23,14,18,22.80
2019,05,23,14,19,22.80
2019,05,23,14,20,22.80
2019,05,23,14,21,22.90
2019,05,23,14,22,22.90
2019,05,23,14,23,23.00
2019,05,23,14,24,23.10
2019,05,23,14,25,23.20
2019,05,23,14,26,23.20
2019,05,23,14,27,23.20
2019,05,23,14,28,23.20
2019,05,23,14,29,23.20
2019,05,23,14,30,23.20
2019,05,23,14,31,23.10
2019,05,23,14,32,23.00
2019,05,23,14,33,22.80
2019,05,23,14,34,22.80
2019,05,23,14,35,22.80
2019,05,23,14,36,22.80
2019,05,23,14,37,22.90
2019,05,23,14,38,22.90
2019,05,23,14,39,22.90
2019,05,23,14,40,22.90
2019,05,23,14,41,22.90
2019,05,23,14,42,22.90
2019,05,23,14,43,22.90
2019,05,23,14,44,22.90
2019,05,23,14,45,22.90
2019,05,23,14,46,22.70
2019,05,23,14,47,22.60
2019,05,23,14,48,22.50
2019,05,23,14,49,22.30
2019,05,23,14,50,22.20
2019,05,23,14,51,22.00
2019,05,23,14,52,21.90
2019,05,23,14,53,21.90
2019,05,23,14,54,21.80
2019,05,23,14,55,21.70
2019,05,23,14,56,21.80
2019,05,23,14,57,21.80
2019,05,23,14,58,21.90
2019,05,23,14,59,21.90
2019,05,23,15,00,21.90
2019,05,23,15,01,21.90
2019,05,23,15,02,21.80
2019,05,23,15,03,21.80
2019,05,23,15,04,21.70
2019,05,23,15,05,21.70
2019,05,23,15,06,21.60
2019,05,23,15,07,21.60
2019,05,23,15,08,21.50
2019,05,23,15,09,21.50
2019,05,23,15,10,21.60
2019,05,23,15,11,21.70
2019,05,23,15,12,21.70
2019,05,23,15,13,21.80
2019,05,23,15,14,21.90
2019,05,23,15,15,22.00
2019,05,23,15,16,22.10
2019,05,23,15,17,22.10
2019,05,23,15,18,22.20
2019,05,23,15,19,22.20
2019,05,23,15,20,22.20
2019,05,23,15,21,22.20
2019,05,23,15,22,22.20
2019,05,23,15,23,22.20
2019,05,23,15,24,22.20
2019,05,23,15,25,22.20
2019,05,23,15,26,22.30
2019,05,23,15,27,22.40
2019,05,23,15,28,22.40
2019,05,23,15,29,22.50
2019,05,23,15,30,22.60
2019,05,23,15,31,22.70
2019,05,23,15,32,22.80
2019,05,23,15,33,22.80
2019,05,23,15,34,22.80
2019,05,23,15,35,22.80
2019,05,23,15,36,22.90
2019,05,23,15,37,22.90
2019,05,23,15,38,23.00
2019,05,23,15,39,23.10
2019,05,23,15,40,23.10
2019,05,23,15,41,23.10
2019,05,23,15,42,23.10
2019,05,23,15,43,23.10
2019,05,23,15,44,23.20
2019,05,23,15,45,23.20
2019,05,23,15,46,23.20
2019,05,23,15,47,23.30
2019,05,23,15,48,23.30
2019,05,23,15,49,23.30
2019,05,23,15,50,23.30
2019,05,23,15,51,23.30
2019,05,23,15,52,23.40
2019,05,23,15,53,23.50
2019,05,23,15,54,23.50
2019,05,23,15,55,23.60
2019,05,23,15,56,23.60
2019,05,23,15,57,23.60
2019,05,23,15,58,23.70
2019,05,23,15,59,23.70
2019,05,23,16,00,23.80
2019,05,23,16,01,23.80
2019,05,23,16,02,23.70
2019,05,23,16,03,23.80
2019,05,23,16,04,23.80
2019,05,23,16,05,23.80
2019,05,23,16,06,23.80
2019,05,23,16,07,23.80
2019,05,23,16,08,23.80
2019,05,23,16,09,23.70
2019,05,23,16,10,23.70
2019,05,23,16,11,23.70
2019,05,23,16,12,23.80
2019,05,23,16,13,23.80
2019,05,23,16,14,23.90
2019,05,23,16,15,24.00
2019,05,23,16,16,24.10
2019,05,23,16,17,24.20
2019,05,23,16,18,24.30
2019,05,23,16,19,24.40
2019,05,23,16,20,24.40
2019,05,23,16,21,24.50
2019,05,23,16,22,24.50
2019,05,23,16,23,24.60
2019,05,23,16,24,24.60
2019,05,23,16,25,24.60
2019,05,23,16,26,24.50
2019,05,23,16,27,24.40
2019,05,23,16,28,24.40
2019,05,23,16,29,24.30
2019,05,23,16,30,24.30
2019,05,23,16,31,24.30
2019,05,23,16,32,24.30
2019,05,23,16,33,24.20
2019,05,23,16,34,24.20
2019,05,23,16,35,24.20
2019,05,23,16,36,24.20
2019,05,23,16,37,24.20
2019,05,23,16,38,24.20
2019,05,23,16,39,24.20
2019,05,23,16,40,24.20
2019,05,23,16,41,24.20
2019,05,23,16,42,24.30
2019,05,23,16,43,24.30
2019,05,23,16,44,24.30
2019,05,23,16,45,24.30
2019,05,23,16,46,24.30
2019,05,23,16,47,24.30
2019,05,23,16,48,24.30
2019,05,23,16,49,24.30
2019,05,23,16,50,24.30
2019,05,23,16,51,24.30
2019,05,23,16,52,24.30
2019,05,23,16,53,24.40
2019,05,23,16,54,24.40
2019,05,23,16,55,24.40
2019,05,23,16,56,24.50
2019,05,23,16,57,24.60
2019,05,23,16,58,24.60
2019,05,23,16,59,24.70
2019,05,23,17,00,24.70
2019,05,23,17,01,24.70
2019,05,23,17,02,24.70
2019,05,23,17,03,24.70
2019,05,23,17,04,24.70
2019,05,23,17,05,24.70
2019,05,23,17,06,24.60
2019,05,23,17,07,24.60
2019,05,23,17,08,24.60
2019,05,23,17,09,24.60
2019,05,23,17,10,24.50
2019,05,23,17,11,24.60
2019,05,23,17,12,24.60
2019,05,23,17,13,24.70
2019,05,23,17,14,24.70
2019,05,23,17,15,24.60
2019,05,23,17,16,24.60
2019,05,23,17,17,24.50
2019,05,23,17,18,24.50
2019,05,23,17,19,24.40